• en France
  • Liste des pays
  • À 7 jours
  • Température de l'eau
  • Carte satellitaire
  • Carte météo
  • Widgets météo
  • user-avatar
    Se connecter

    Météo par heure à Ibigs

    Ce jour, 13 Décembre, Mercredi

    Heure Température Précipitation Vent Pression Humidité
    00:00 +19°C° 0,1 mm 1 m/s 649 mmHg 82%
    01:00 +19°C° 0 mm 1 m/s 649 mmHg 84%
    02:00 +18°C° 0 mm 1 m/s 649 mmHg 84%
    03:00 +18°C° 0 mm 1 m/s 649 mmHg 84%
    04:00 +16°C° 0 mm 1 m/s 649 mmHg 84%
    05:00 +18°C° 0 mm 1 m/s 649 mmHg 82%
    06:00 +18°C° 0 mm 1 m/s 650 mmHg 79%
    07:00 +19°C° 0 mm 1 m/s 650 mmHg 77%
    08:00 +21°C° 0 mm 1 m/s 651 mmHg 71%
    09:00 +23°C° 0 mm 1 m/s 651 mmHg 64%
    10:00 +25°C° 0 mm 1 m/s 652 mmHg 57%
    11:00 +26°C° 0 mm 1 m/s 651 mmHg 56%
    12:00 +26°C° 0 mm 1 m/s 651 mmHg 56%
    13:00 +27°C° 0 mm 1 m/s 650 mmHg 55%
    14:00 +27°C° 0 mm 1 m/s 650 mmHg 55%
    15:00 +27°C° 0 mm 1 m/s 649 mmHg 55%
    16:00 +27°C° 0 mm 1 m/s 649 mmHg 55%
    17:00 +25°C° 0 mm 1 m/s 648 mmHg 62%
    18:00 +23°C° 0 mm 1 m/s 648 mmHg 70%
    19:00 +21°C° 0 mm 1 m/s 648 mmHg 77%
    20:00 +20°C° 0 mm 1 m/s 648 mmHg 79%
    21:00 +20°C° 0 mm 1 m/s 649 mmHg 80%
    22:00 +19°C° 0 mm 1 m/s 649 mmHg 81%
    23:00 +19°C° 0 mm 1 m/s 649 mmHg 82%

    Demain, 14 Décembre, Jeudi

    Heure Température Précipitation Vent Pression Humidité
    00:00 +19°C° 0 mm 1 m/s 648 mmHg 83%
    01:00 +19°C° 0 mm 1 m/s 648 mmHg 84%
    02:00 +18°C° 0 mm 1 m/s 648 mmHg 85%
    03:00 +18°C° 0 mm 1 m/s 648 mmHg 86%
    04:00 +18°C° 0 mm 1 m/s 647 mmHg 87%
    05:00 +18°C° 0 mm 1 m/s 648 mmHg 85%
    06:00 +19°C° 0 mm 1 m/s 648 mmHg 83%
    07:00 +19°C° 0 mm 1 m/s 649 mmHg 80%
    08:00 +21°C° 0 mm 1 m/s 650 mmHg 70%
    09:00 +23°C° 0 mm 1 m/s 650 mmHg 61%
    10:00 +25°C° 0 mm 1 m/s 651 mmHg 51%
    11:00 +27°C° 0 mm 2 m/s 650 mmHg 48%
    12:00 +28°C° 0 mm 2 m/s 650 mmHg 44%
    13:00 +29°C° 0 mm 2 m/s 649 mmHg 41%
    14:00 +28°C° 0 mm 2 m/s 649 mmHg 42%
    15:00 +28°C° 0 mm 2 m/s 648 mmHg 43%
    16:00 +28°C° 0 mm 1 m/s 648 mmHg 44%
    17:00 +26°C° 0 mm 1 m/s 648 mmHg 53%
    18:00 +23°C° 0 mm 1 m/s 648 mmHg 61%
    19:00 +21°C° 0 mm 1 m/s 648 mmHg 69%
    20:00 +20°C° 0 mm 1 m/s 648 mmHg 67%
    21:00 +20°C° 0 mm 1 m/s 649 mmHg 66%
    22:00 +19°C° 0 mm 1 m/s 649 mmHg 64%
    23:00 +19°C° 0 mm 1 m/s 649 mmHg 60%

    Après-demain, 15 Décembre, Vendredi

    Heure Température Précipitation Vent Pression Humidité
    00:00 +19°C° 0 mm 1 m/s 649 mmHg 56%
    01:00 +19°C° 0 mm 1 m/s 648 mmHg 52%
    02:00 +18°C° 0 mm 1 m/s 648 mmHg 51%
    03:00 +18°C° 0 mm 1 m/s 648 mmHg 50%
    04:00 +18°C° 0 mm 1 m/s 647 mmHg 49%
    05:00 +18°C° 0 mm 1 m/s 648 mmHg 50%
    06:00 +19°C° 0 mm 1 m/s 649 mmHg 51%
    07:00 +20°C° 0 mm 1 m/s 649 mmHg 51%
    08:00 +22°C° 0 mm 1 m/s 650 mmHg 48%
    09:00 +24°C° 0 mm 1 m/s 650 mmHg 44%
    10:00 +27°C° 0 mm 2 m/s 651 mmHg 41%
    11:00 +28°C° 0 mm 2 m/s 651 mmHg 39%
    12:00 +29°C° 0 mm 2 m/s 650 mmHg 37%
    13:00 +30°C° 0 mm 2 m/s 649 mmHg 35%
    14:00 +29°C° 0 mm 2 m/s 649 mmHg 37%
    15:00 +29°C° 0 mm 1 m/s 648 mmHg 38%
    16:00 +29°C° 0 mm 1 m/s 648 mmHg 39%
    17:00 +26°C° 0 mm 1 m/s 648 mmHg 46%
    18:00 +24°C° 0 mm 1 m/s 647 mmHg 54%
    19:00 +21°C° 0 mm 1 m/s 647 mmHg 61%
    20:00 +21°C° 0 mm 1 m/s 648 mmHg 60%
    21:00 +21°C° 0 mm 1 m/s 648 mmHg 59%
    22:00 +20°C° 0 mm 1 m/s 649 mmHg 58%
    23:00 +20°C° 0 mm 1 m/s 649 mmHg 56%

    16 Décembre, Samedi

    Heure Température Précipitation Vent Pression Humidité
    00:00 +20°C° 0 mm 1 m/s 648 mmHg 55%
    01:00 +19°C° 0 mm 1 m/s 648 mmHg 53%
    02:00 +19°C° 0 mm 1 m/s 648 mmHg 53%
    03:00 +19°C° 0 mm 1 m/s 648 mmHg 53%
    04:00 +19°C° 0 mm 1 m/s 647 mmHg 53%
    05:00 +19°C° 0 mm 1 m/s 648 mmHg 54%
    06:00 +20°C° 0 mm 1 m/s 648 mmHg 54%
    07:00 +20°C° 0 mm 1 m/s 649 mmHg 54%
    08:00 +22°C° 0 mm 1 m/s 650 mmHg 50%
    09:00 +24°C° 0 mm 1 m/s 650 mmHg 45%
    10:00 +27°C° 0 mm 1 m/s 651 mmHg 41%
    11:00 +28°C° 0 mm 1 m/s 650 mmHg 40%
    12:00 +28°C° 0 mm 1 m/s 650 mmHg 39%
    13:00 +29°C° 0 mm 1 m/s 649 mmHg 38%
    14:00 +29°C° 0 mm 1 m/s 649 mmHg 39%
    15:00 +29°C° 0 mm 1 m/s 648 mmHg 40%
    16:00 +28°C° 0 mm 1 m/s 648 mmHg 42%
    17:00 +26°C° 0 mm 1 m/s 647 mmHg 49%
    18:00 +24°C° 0 mm 1 m/s 647 mmHg 57%
    19:00 +21°C° 0 mm 1 m/s 647 mmHg 64%
    20:00 +21°C° 0 mm 1 m/s 647 mmHg 64%
    21:00 +20°C° 0 mm 1 m/s 648 mmHg 64%
    22:00 +20°C° 0 mm 1 m/s 648 mmHg 64%
    23:00 +20°C° 0 mm 1 m/s 648 mmHg 63%

    17 Décembre, Dimanche

    Heure Température Précipitation Vent Pression Humidité
    00:00 +19°C° 0 mm 1 m/s 648 mmHg 61%
    01:00 +19°C° 0 mm 1 m/s 647 mmHg 60%
    02:00 +19°C° 0 mm 1 m/s 647 mmHg 58%
    03:00 +18°C° 0 mm 1 m/s 647 mmHg 57%
    04:00 +18°C° 0 mm 1 m/s 647 mmHg 56%
    05:00 +19°C° 0 mm 1 m/s 647 mmHg 55%
    06:00 +19°C° 0 mm 1 m/s 648 mmHg 54%
    07:00 +20°C° 0 mm 1 m/s 649 mmHg 52%
    08:00 +22°C° 0 mm 1 m/s 649 mmHg 47%
    09:00 +24°C° 0 mm 1 m/s 650 mmHg 42%
    10:00 +27°C° 0 mm 1 m/s 650 mmHg 38%
    11:00 +28°C° 0 mm 1 m/s 650 mmHg 36%
    12:00 +29°C° 0 mm 2 m/s 649 mmHg 34%
    13:00 +30°C° 0 mm 2 m/s 649 mmHg 33%
    14:00 +30°C° 0 mm 1 m/s 648 mmHg 33%
    15:00 +29°C° 0 mm 1 m/s 648 mmHg 33%
    16:00 +29°C° 0 mm 1 m/s 647 mmHg 34%
    17:00 +26°C° 0 mm 1 m/s 647 mmHg 40%
    18:00 +24°C° 0 mm 1 m/s 647 mmHg 46%
    19:00 +20°C° 0 mm 2 m/s 647 mmHg 52%
    20:00 +20°C° 0 mm 2 m/s 647 mmHg 47%
    21:00 +19°C° 0 mm 2 m/s 648 mmHg 42%
    22:00 +19°C° 0 mm 2 m/s 648 mmHg 36%
    23:00 +18°C° 0 mm 2 m/s 648 mmHg 35%

    18 Décembre, Lundi

    Heure Température Précipitation Vent Pression Humidité
    00:00 +18°C° 0 mm 2 m/s 648 mmHg 33%
    01:00 +18°C° 0 mm 2 m/s 647 mmHg 32%
    02:00 +17°C° 0 mm 2 m/s 647 mmHg 33%
    03:00 +18°C° 0 mm 1 m/s 647 mmHg 34%
    04:00 +16°C° 0 mm 1 m/s 647 mmHg 36%
    05:00 +18°C° 0 mm 1 m/s 647 mmHg 37%
    06:00 +18°C° 0 mm 1 m/s 648 mmHg 39%
    07:00 +19°C° 0 mm 1 m/s 649 mmHg 40%
    08:00 +21°C° 0 mm 1 m/s 649 mmHg 37%
    09:00 +24°C° 0 mm 1 m/s 650 mmHg 33%
    10:00 +27°C° 0 mm 1 m/s 650 mmHg 30%
    11:00 +28°C° 0 mm 2 m/s 650 mmHg 27%
    12:00 +29°C° 0 mm 2 m/s 650 mmHg 25%
    13:00 +30°C° 0 mm 2 m/s 649 mmHg 23%
    14:00 +30°C° 0 mm 2 m/s 649 mmHg 23%
    15:00 +30°C° 0 mm 1 m/s 648 mmHg 23%
    16:00 +29°C° 0 mm 1 m/s 648 mmHg 23%
    17:00 +26°C° 0 mm 1 m/s 648 mmHg 29%
    18:00 +23°C° 0 mm 2 m/s 648 mmHg 34%
    19:00 +19°C° 0 mm 2 m/s 647 mmHg 40%
    20:00 +19°C° 0 mm 2 m/s 648 mmHg 36%
    21:00 +18°C° 0 mm 2 m/s 648 mmHg 33%
    22:00 +18°C° 0 mm 2 m/s 649 mmHg 29%
    23:00 +17°C° 0 mm 2 m/s 648 mmHg 27%
    Voir plus